Location: Chilton Park
(37.7711°N, 100.0276°W)
Time: 17:14:13
(UTC+00:00)

Cosmos 1898 Rocket - Pass Details

Date: 05 July 2022
Orbit: 753 x 783 km, 74.0° (Epoch: 18 August)

Event Time Altitude Azimuth Distance (km) Brightness Sun altitude
Rises 06:29:37 0° 2° (N) 3,213 7.9 -29.3°
Reaches altitude 10° 06:33:31 10° 31° (NNE) 2,283 6.6 -29.4°
Maximum altitude 06:35:41 13° 56° (NE) 2,108 6.1 -29.4°
Drops below altitude 10° 06:37:51 10° 81° (E) 2,280 6.0 -29.4°
Enters shadow 06:38:08 - 84° (E) 2,323 6.0 -29.4°
